Volver al catálogo

FENGYUN 1C DEB *

ActivoSSO
NORAD 47104·DEBRIS·🇨🇳 China

Lanzado May 10, 1999 desde Taiyuan Satellite Launch Center

Loading…

Próximos Pases (próximas 24 horas)

TLE

ActualizadoSource: Space-Track

Época: Sep 12, 2026, 07:44 UTC

1 47104U 99025FCC 26255.32224893  .00000214  00000-0  12193-3 0  9990
2 47104  98.8805 291.0216 0039606 272.4937  87.1705 14.19650908662549

Sigue FENGYUN 1C DEB * en tiempo real con AllMySat

Download on the App Store